Miscellaneous Local Product
Issued by NWS Hastings, NE

Home | Current Version | Previous Version | Text Only | Print | Product List | Glossary Off
Versions: 1 2 3 4 5 6 7 8 9 10 11 12 13 14 15 16 17 18 19 20 21 22 23 24 25 26 27 28 29 30 31 32 33 34 35 36 37 38 39 40 41 42 43 44 45 46 47 48 49 50

000
AXUS43 KGID 281702
MISGRI

GID CWA HOURLY WEATHER ROUNDUP
NATIONAL WEATHER SERVICE HASTINGS NE
1200 PM CDT FRI APR 28 2017

NOTE: "FAIR" INDICATES FEW OR NO CLOUDS BELOW 12,000 FEET WITH NO
SIGNIFICANT WEATHER AND/OR OBSTRUCTIONS TO VISIBILITY.

...SOUTH CENTRAL NEBRASKA...

CITY           SKY/WX    TMP DP  RH WIND       PRES   REMARKS
GRAND ISLAND   LGT RAIN  37  37 100 NE24G32   29.79R FOG     WCI  26
HASTINGS       LGT RAIN  38  36  92 NE18G28   29.76R FOG     WCI  28
KEARNEY        CLOUDY    36  32  87 NE15      29.78R WCI  26
ORD            LGT SNOW  34  31  88 NE17G24   29.84R FOG     WCI  23
YORK           LGT RAIN  37  37 100 NE28      29.75S WCI  25
AURORA         LGT RAIN  37  36  98 NE20G25   29.77S WCI  26
LEXINGTON      LGT SNOW  34  33  93 NE15G21   29.78R VSB 3/4 WCI  25
HOLDREGE       CLOUDY    38  37  93 NE24G30   29.75R FOG     WCI  27
HEBRON         CLOUDY    42  41  97 NE16G22   29.71R FOG

...NEBRASKA PANHANDLE...

CITY           SKY/WX    TMP DP  RH WIND       PRES   REMARKS
CHADRON        LGT SNOW  34  32  92 E16       29.89R FOG     WCI  24
ALLIANCE       LGT SNOW  33  31  92 E23       29.81R VSB 3/4 WCI  21
SCOTTSBLUFF    HVY SNOW  34  31  88 E17       29.80R VSB 1/4 WCI  23
SIDNEY         LGT SNOW  35  32  88 E17       29.76R FOG     WCI  25

...WESTERN AND NORTH CENTRAL NEBRASKA...

CITY           SKY/WX    TMP DP  RH WIND       PRES   REMARKS
VALENTINE      CLOUDY    42  28  57 E21G26    29.90R
AINSWORTH      CLOUDY    39  31  74 E13G22    29.89R WCI  31
ONEILL         CLOUDY    40  28  62 E17G26    29.90R WCI  31
BROKEN BOW     LGT SNOW  34  32  92 NE21G31   29.82R FOG     WCI  22
IMPERIAL       CLOUDY    38  35  89 NE17      29.77R WCI  28
NORTH PLATTE   LGT SNOW  35  34  96 NE16G23   29.80R VSB 1   WCI  25
MCCOOK         LGT RAIN  40  39  97 NE22      29.75R FOG     WCI  30

...EASTERN NEBRASKA...

CITY           SKY/WX    TMP DP  RH WIND       PRES   REMARKS
NORFOLK        LGT SNOW  34  32  92 NE12      29.86R FOG     WCI  25
SO SIOUX CITY  CLOUDY    40  31  70 NE13      29.90R WCI  32
TEKAMAH        LGT RAIN  39  35  86 NE22      29.85S WCI  29
COLUMBUS       CLOUDY    37  34  87 NE20G26   29.82R WCI  27
ALBION         LGT SNOW  35  32  90 NE16G22   29.85R WCI  25
OMAHA EPPLEY   LGT RAIN  39  33  79 NE18G29   29.83S WCI  30
OFFUTT AFB     LGT RAIN  39  36  89 NE16G30   29.79F WCI  30
MILLARD        DRIZZLE   40  38  89 NE8G20    29.80F
LINCOLN        LGT RAIN  40  38  93 NE16G23   29.80R FOG     WCI  31
NEBRASKA CITY  CLOUDY    39  39 100 NE18G24   29.77S WCI  30
BEATRICE       CLOUDY    41  40  96 NE16G24   29.73S FOG
FALLS CITY     LGT RAIN  44  43  96 NE13G21   29.72R FOG

...NORTHERN KANSAS...

CITY           SKY/WX    TMP DP  RH WIND       PRES   REMARKS
GOODLAND       MOSUNNY   50  40  68 N12       29.71S
HILL CITY      CLOUDY    56  44  64 NW12      29.68R
NORTON         CLOUDY    45  41  87 NE20G28   29.70R FOG
PHILLIPSBURG   PTSUNNY   54  46  76 N3        29.67F
SMITH CENTER   DRIZZLE   48  46  93 CALM      29.69R
HAYS           SUNNY     59  46  62 NW16G25   29.66R
RUSSELL        MOSUNNY   60  45  57 W18       29.65R
CONCORDIA      CLOUDY    51  51 100 NE5       29.68R
SALINA         MOSUNNY   66  52  60 VRB6      29.65S
TOPEKA         CLOUDY    59  56  89 SE7       29.66F



USA.gov is the U.S. government's official web portal to all federal, state and local government web resources and services.